Regional Weather Roundup
Issued by NWS Jackson, KY

Home | Current Version | Previous Version | Text Only | Print | Product List | Glossary On
Versions: 1 2 3 4 5 6 7 8 9 10 11 12 13 14 15 16 17 18 19 20 21 22 23 24 25 26 27 28
000
ASUS43 KJKL 251010
RWRJKL

EAST KENTUCKY HOURLY WEATHER ROUNDUP
NATIONAL WEATHER SERVICE JACKSON KY
600 AM EDT SUN JUN 25 2017

NOTE: "FAIR" INDICATES FEW OR NO CLOUDS BELOW 12,000 FEET WITH
NO SIGNIFICANT WEATHER AND/OR OBSTRUCTIONS TO VISIBILITY.

* THESE REPORTS ARE NOT UNDER NWS QUALITY CONTROL AND MAY NOT
  REPORT WEATHER SUCH AS PRECIPITATION AND FOG.

KYZ079-080-083-085-087-088-110-112-115-119-120-251100
...EASTERN KENTUCKY...

CITY           SKY/WX    TMP DP  RH WIND       PRES   REMARKS
JACKSON        PTCLDY    61  55  81 CALM      30.16R
LONDON         CLEAR     58  56  93 CALM      30.17R
SOMERSET*      CLEAR     55  55 100 CALM      30.18S FOG
MONTICELLO*    CLEAR     57  56  96 NE9       30.19S
WILLIAMSBURG*  CLOUDY    57  57 100 CALM      30.18R
MIDDLESBORO*   CLOUDY    58  58 100 CALM      30.17S
HARLAN APT*    CLOUDY    57  55  94 CALM      30.17S VSB 3/4
PIKE CO APT*   CLOUDY    62  60  95 W3        30.15R
BIG SANDY APT* MOSUNNY   62  58  86 CALM      30.15R
MOREHEAD APT*  SUNNY     57  55  94 S5        30.17R FOG
$$

KYZ035-036-041-042-044-050-067-078-099-251100
...CENTRAL KENTUCKY...

CITY           SKY/WX    TMP DP  RH WIND       PRES   REMARKS
MT STERLING*   CLEAR     54  54 100 W3        30.17R
FLEMING/MASON* CLEAR     56  55  95 SW5       30.16R
DANVILLE*      CLEAR     55  52  88 CALM      30.18S
LEXINGTON      CLEAR     56  52  86 CALM      30.16R
FRANKFORT      CLEAR     56  52  86 SW3       30.15R
LOUISVILLE     PTCLDY    60  54  80 SW5       30.15R
LEBANON*         N/A    N/A N/A N/A MISG        N/A
GLASGOW*       CLEAR    N/A N/A N/A CALM      30.17S
BOWLING GREEN  CLEAR     57  56  96 CALM      30.18R
$$

KYZ091>093-OHZ055-061-077-WVZ005-015-034-035-042-251100
...SOUTHERN OHIO/WEST VIRGINIA...

CITY           SKY/WX    TMP DP  RH WIND       PRES   REMARKS
COVINGTON      CLEAR     54  51  90 CALM      30.13R
COLUMBUS       CLEAR     59  50  72 SW5       30.07R
DAYTON         CLEAR     54  47  77 SW9       30.10R
WILMINGTON     CLEAR     53  50  89 SW6       30.11R
HUNTINGTON     CLEAR     60  56  86 SW5       30.11R
CHARLESTON     MOCLDY    62  59  90 SW6       30.11R
PINEVILLE*     MOCLDY    58  57  97 MISG      30.19R
BECKLEY        MOCLDY    59  55  87 NW6       30.15R
BLUEFIELD      CLOUDY    58  55  90 W6        30.17R
LOGAN CO APT*  CLOUDY    63  59  88 CALM      30.14R
$$

VAZ002-007-008-TNZ017-027-036-066-071-251100
...SOUTHWEST VIRGINIA/EAST TENNESSEE...

CITY           SKY/WX    TMP DP  RH WIND       PRES   REMARKS
WISE*          MOCLDY    61  54  77 NW6       30.21R
JONESVILLE*      N/A     59  59 100 CALM      30.18R
ABINGDON*      CLOUDY    66  59  77 NW7       30.16R
BRISTOL        CLOUDY    63  61  93 CALM      30.15R
MORRISTOWN*    CLOUDY    64  61  88 CALM      30.14S
SEVIERVILLE*   MOSUNNY   63  61  94 CALM      30.14R
KNOXVILLE      CLOUDY    66  57  72 N7        30.14R
LAFOLLETTE*    SUNNY     61  57  88 CALM      30.20R
OAK RIDGE      MOCLDY    63  60  90 CALM      30.16R
CROSSVILLE     PTCLDY    58  54  86 N5        30.20R
NASHVILLE      CLOUDY    63  56  78 CALM      30.20R
$$

...KEY TO REMARKS...
VSB - VISIBILITY IN MILES
WCI - WIND CHILL INDEX
HX  - HEAT INDEX

$$




USA.gov is the U.S. government's official web portal to all federal, state and local government web resources and services.